Regional Weather Roundup
Issued by NWS

Home | Current Version | Previous Version | Graphics & Text | Print | Product List | Glossary On
Versions: 1 2 3 4 5 6 7 8 9 10 11 12 13 14 15 16 17 18 19 20 21 22 23 24 25 26 27
000
ASUS45 KBOU 272307
RWRCO

WEATHER ROUNDUP FOR COLORADO
NATIONAL WEATHER SERVICE DENVER/BOULDER CO
400 PM MST MON FEB 27 2017

NOTE: "FAIR" INDICATES FEW OR NO CLOUDS BELOW 12000 FEET WITH NO
SIGNIFICANT WEATHER AND/OR OBSTRUCTIONS TO VISIBILITY.

COZ001>005-013-030-031-280000-
...NORTHWEST COLORADO...

CITY           SKY/WX    TMP DP  RH WIND       PRES   REMARKS
CRAIG          HVY SNOW  24  21  88 VRB6      29.64R VSB 1/4 WCI  17
HAYDEN         CLOUDY    27  21  80 NW8       29.60R VSB 3/4 WCI  18
MEEKER         CLOUDY    40  23  50 SW23G35   29.61R
MOUNT WERNER   NOT AVBL
STEAMBOAT SPGS CLOUDY    32  23  69 W9G18     29.57R WCI  24
WALDEN         NOT AVBL
$$

COZ006>008-011-280000-
...WEST CENTRAL VALLEYS...

CITY           SKY/WX    TMP DP  RH WIND       PRES   REMARKS
GRAND JUNCTION CLOUDY    49  20  31 SW14      29.64F
MONTROSE       FAIR      45  20  36 SW29G39   29.73R
EAGLE          CLOUDY    37  19  48 SW28G35   29.63R
RIFLE          CLOUDY    45  23  42 SW20G31   29.64S
DELTA          PTSUNNY   50  18  27 SW20G30   29.69S
NUCLA          PTSUNNY   45  16  31 SW21G32   29.75S
$$

COZ017>023-064>068-280000-
...SOUTHWEST COLORADO...

CITY           SKY/WX    TMP DP  RH WIND       PRES   REMARKS
DURANGO        CLOUDY    40  19  43 W13       29.84R
CORTEZ         FAIR      46  23  40 SW21G31   29.80S
PAGOSA SPRINGS CLOUDY    36  18  47 SW16G26   29.84S
TELLURIDE      PTSUNNY   30  17  59 S13       29.78S WCI  20
WOLF CREEK PAS CLOUDY    14  14 100 S35G55    29.77R WCI  -8
$$

COZ009-010-012-014-032>034-037-058>063-280000-
...CENTRAL COLORADO...

CITY           SKY/WX    TMP DP  RH WIND       PRES   REMARKS
ASPEN          FLURRIES  30  24  78 SE7       29.64R WCI  23
BUENA VISTA    PTSUNNY   37   6  27 S16       29.64S
COPPER MTN     NOT AVBL
BERTHOUD PASS  LGT SNOW  12   1  62 W25G35    29.57S WCI  -8
COTTONWOOD PAS CLOUDY    32   3  29 SW25G43   29.65S WCI  19
GUNNISON       FAIR      19   8  62 NE3       29.74R
KREMMLING      LGT SNOW  36  28  75 SW22G29   29.62R
LEADVILLE      CLOUDY    24   9  52 S16       29.61R WCI  11
MONARCH PASS   CLOUDY    16   9  73 W32G43    29.77S WCI  -5
SALIDA         CLOUDY    39   9  28 W14G21    29.74R
SUNLIGHT       NOT AVBL
WILKERSON PASS PTSUNNY   23   5  46 SW18G28   29.63S WCI   9
$$

COZ069>075-280000-
...SAN LUIS VALLEY/SANGRE DE CRISTO MOUNTAINS...

CITY           SKY/WX    TMP DP  RH WIND       PRES   REMARKS
ALAMOSA        FAIR      38  19  46 SW26G35   29.77S
LA VETA PASS   CLOUDY    27  14  59 S35G52    29.73R WCI   9
SAGUACHE       PTSUNNY   37  14  38 SW15G21   29.70S
$$

COZ035-036-038>040-280000-
...NORTHERN COLORADO FRONT RANGE...

CITY           SKY/WX    TMP DP  RH WIND       PRES   REMARKS
DENVER INTL AP PTSUNNY   52   9  17 NW12      29.51R
DMNS CITY PARK   N/A     53   2  12 SW14G21   29.51S
AURORA         PTSUNNY   53   0  11 W25G35    29.51R
FRONT RANGE AP PTSUNNY   57   3  11 SW29G37   29.52R
ERIE MUNI ARPT FAIR      51   6  16 CALM      29.52R
BOULDER MUN AP PTSUNNY   50  14  23 NW6       29.51R
CENTENNIAL     PTSUNNY   52   3  13 SW17G31   29.53R
BROOMFIELD     PTSUNNY   50  10  20 CALM      29.52R
FORT COLLINS   FAIR      51  13  21 W15       29.51S
LONGMONT       NOT AVBL
$$

COZ041-046-047-076>085-087-088-280000-
...PIKES PEAK/PALMER DIVIDE AND SOUTHERN FOOTHILLS...

CITY           SKY/WX    TMP DP  RH WIND       PRES   REMARKS
COLO. SPRINGS  PTSUNNY   51   2  13 SW33G41   29.59R
A. F. ACADEMY  FAIR      50  -2  11 NW8G33    29.56S
SCHRIEVER AFB  FAIR      51   1  13 SW31G40   29.59S
ELLICOTT       FAIR     N/A N/A N/A SW31G41   29.58F
FALCON         FAIR      48   1  14 SW26G39   29.60R
FORT CARSON    FAIR      52   3  13 SW24G31   29.58R
LIMON          FAIR      68   6   9 SW25G33   29.55S
MONUMENT HILL  FAIR      45   3  18 W25       29.59R
TRINIDAD       FAIR      57  -4   8 SW30G39   29.67R
$$

COZ042>045-048>051-090-091-280000-
...NORTHEAST COLORADO...

CITY           SKY/WX    TMP DP  RH WIND       PRES   REMARKS
GREELEY ARPT   NOT AVBL
AKRON          FAIR      58  10  15 S16       29.49F
BURLINGTON     FAIR      58  12  16 S21       29.56F
WRAY           NOT AVBL
STERLING       FAIR      57  19  23 SE6       29.48F
HOLYOKE        FAIR      59  12  15 SE12G17   29.54F
FORT MORGAN    FAIR      59   8  13 SW6       29.49F
$$

COZ086-089-092>099-280000-
...SOUTHEAST COLORADO...

CITY           SKY/WX    TMP DP  RH WIND       PRES   REMARKS
PUEBLO         FAIR      57  10  15 SW31G47   29.60R
LA JUNTA       FAIR      61  10  13 W32G43    29.61R
LAMAR          FAIR      66   5   9 W24       29.57F
SPRINGFIELD      N/A     65   3   8 SW16G28   29.62F
$$




USA.gov is the U.S. government's official web portal to all federal, state and local government web resources and services.